Regional Weather Roundup
Issued by NWS

Home | Current Version | Previous Version | Graphics & Text | Print | Product List | Glossary On
Versions: 1 2 3 4 5 6 7 8 9 10 11 12 13 14 15 16 17 18 19 20 21 22 23 24 25 26 27 28 29 30 31 32 33 34 35 36 37 38 39 40 41 42 43 44 45 46 47 48 49 50
000
ASUS43 KOAX 201302
RWRNE

WEATHER ROUNDUP FOR NEBRASKA
NATIONAL WEATHER SERVICE OMAHA NE
800 AM CDT FRI APR 20 2018

NOTES: SATELLITE DATA IS BEING USED TO AUGMENT CLOUD COVER ABOVE
       12000 FEET.
       "FAIR" INDICATES FEW OR NO CLOUDS BELOW 12,000 FEET WITH NO
       SIGNIFICANT WEATHER AND/OR OBSTRUCTIONS TO VISIBILITY.


NEZ001>004-019>022-054>056-201400-
NEBRASKA PANHANDLE

CITY           SKY/WX    TMP DP  RH WIND       PRES   REMARKS
SCOTTSBLUFF    CLOUDY    40  29  64 SE14      30.07R WCI  32
ALLIANCE       CLOUDY    41  28  60 SE24G33   30.08S
CHADRON        CLOUDY    44  28  53 SE6G16    30.09R
GORDON         FAIR      40  29  63 SE10      30.14R WCI  34
KIMBALL        CLOUDY    37  27  69 SE23      30.02R WCI  25
SIDNEY         CLOUDY    39  28  64 SE25G36   30.06S WCI  28
$$

NEZ057>060-069>072-079>082-201400-
SOUTHWEST NEBRASKA

CITY           SKY/WX    TMP DP  RH WIND       PRES   REMARKS
NORTH PLATTE   CLOUDY    43  28  55 S12       30.22R
IMPERIAL       CLOUDY    39  28  64 E13       30.17R WCI  31
LEXINGTON      CLOUDY    41  30  65 SE10      30.27S
MCCOOK         CLOUDY    42  28  57 SE9G20    30.23R
OGALLALA       CLOUDY    42  28  58 SE14G21   30.17S
$$

NEZ005>010-023>029-035>040-094-201400-
NORTH CENTRAL NEBRASKA

CITY           SKY/WX    TMP DP  RH WIND       PRES   REMARKS
VALENTINE      CLOUDY    34  29  82 E7        30.24R WCI  28
AINSWORTH      CLOUDY    39  30  70 S13       30.26R WCI  31
BROKEN BOW     CLOUDY    38  29  70 SE8       30.27R WCI  32
O`NEILL        CLOUDY    38  32  78 SE7       30.33R WCI  33
ORD            CLOUDY    35  29  78 SE8       30.30R WCI  29
THEDFORD       CLOUDY    41  29  63 SE9       30.23S
$$

NEZ041-046>049-061>064-073>077-083>087-201400-
SOUTH CENTRAL NEBRASKA

CITY           SKY/WX    TMP DP  RH WIND       PRES   REMARKS
GRAND ISLAND   MOSUNNY   39  29  67 SE10      30.34S WCI  32
AURORA         CLOUDY    38  31  75 SE9       30.35S WCI  32
HASTINGS       CLOUDY    39  29  67 SE10      30.33S WCI  32
HEBRON         PTSUNNY   41  32  71 SE6       30.37R
HOLDREGE       CLOUDY    42  32  68 SE13      30.29R
KEARNEY        PTSUNNY   39  30  70 SE9       30.31R WCI  33
YORK             N/A     39  32  75 SE12      30.37S WCI  32
$$

NEZ011>018-030>034-042>045-201400-
NORTHEAST NEBRASKA

CITY           SKY/WX    TMP DP  RH WIND       PRES   REMARKS
NORFOLK        PTSUNNY   35  30  82 E8        30.37S WCI  29
ALBION         CLOUDY    37  31  81 SE6       30.36R WCI  32
BLAIR          PTSUNNY   37  28  70 CALM      30.42R
COLUMBUS       CLOUDY    36  30  79 E8        30.40R WCI  30
FREMONT        CLOUDY    40  30  67 E7        30.42S
TEKAMAH        PTSUNNY   32  27  81 SE5       30.45R WCI  27
WAYNE          CLOUDY    34  32  92 SE5       30.41R WCI  30
$$

NEZ050>053-065>068-078-088>093-201400-
SOUTHEAST NEBRASKA

CITY           SKY/WX    TMP DP  RH WIND       PRES   REMARKS
LINCOLN        CLOUDY    39  30  70 CALM      30.42R
OMAHA EPPLEY   PTSUNNY   38  28  67 SE7       30.44S WCI  33
FALLS CITY     CLOUDY    37  30  75 E5        30.43S WCI  33
NEBRASKA CITY  MOSUNNY   38  31  76 E3        30.43S
PLATTSMOUTH    MOSUNNY   38  29  72 E7        30.43S HAZE    WCI  32
$$

NEZ044-045-051>053-067-201400-
OMAHA AREA

CITY           SKY/WX    TMP DP  RH WIND       PRES   REMARKS
OMAHA EPPLEY   PTSUNNY   38  28  67 SE7       30.44S WCI  33
BLAIR          PTSUNNY   37  28  70 CALM      30.42R
FREMONT        CLOUDY    40  30  67 E7        30.42S
MILLARD        MOSUNNY   39  29  66 SE3       30.44R
OFFUTT AFB     CLOUDY    34  27  75 E5        30.43R WCI  30
PLATTSMOUTH    MOSUNNY   38  29  72 E7        30.43S HAZE    WCI  32
WAHOO          FAIR      37  29  74 SE5       30.42R WCI  33
$$




USA.gov is the U.S. government's official web portal to all federal, state and local government web resources and services.